Kalamazoo, MI

6:05 PM EST on December 13, 2017 (GMT -0500)
Kalamazoo-Battle Creek International

Weather History for KAZO - December, 2008

Change the Weather History Date:

Thursday, December 18, 2008

  Actual Average Record
Temperature  
Mean Temperature 18 °F 28 °F  
Max Temperature 23 °F 34 °F 49 °F (1957)
Min Temperature 14 °F 22 °F 1 °F (2000)
Degree Days  
Heating Degree Days 46 37  
Month to date heating degree days 619  
Since 1 July heating degree days 1946  
Cooling Degree Days 0 0  
Month to date cooling degree days 0  
Year to date cooling degree days 675  
Moisture  
Dew Point 14 °F    
Average Humidity 82    
Maximum Humidity 86    
Minimum Humidity 72    
Precipitation  
Precipitation 0.00 in 0.06 in 0.63 in (2002)
Month to date precipitation 1.26  
Year to date precipitation 35.02  
Snow  
Snow 0.00 in - - ()
Snow Depth 5.00 in    
Sea Level Pressure  
Sea Level Pressure 30.33 in    
Wind  
Wind Speed 5 mph (SSW)    
Max Wind Speed 9 mph    
Max Gust Speed -    
Visibility 4 miles    
Events Snow    
T = Trace of Precipitation, MM = Missing Value Source: NWS Daily Summary

Daily Weather History Graph

Daily Weather History Graph

Search for Another Location

Airport or City:

Trip Planner

Search our weather history database for the weather conditions in past years. The results will help you decide how hot, cold, wet, or windy it might be!

Date:

Astronomy

Dec. 18, 2008 Rise Set
Actual Time 8:06 AM EST 5:11 PM EST
Civil Twilight 7:34 AM EST 5:43 PM EST
Nautical Twilight 6:58 AM EST 6:19 PM EST
Astronomical Twilight 6:24 AM EST 6:53 PM EST
Moon No Moon Rise 12:10 PM EST (12/18)
Length of Visible Light 10h 09m
Length of Day
9h 05m
Waning Gibbous, 58% of the Moon is Illuminated
Dec 18
Waning Gibbous
Dec 19
Last Quarter
Dec 27
New
Jan 4
First Quarter
Jan 10
Full

Hourly Weather History & Observations

Time (EST) Temp. Windchill Dew Point Humidity Pressure Visibility Wind Dir Wind Speed Gust Speed Precip Events Conditions
12:53 AM 19.9 °F 12.1 °F 14.0 °F 78% 30.35 in 7.0 mi WSW 5.8 mph - N/A   Overcast
1:53 AM 19.0 °F 12.3 °F 14.0 °F 81% 30.36 in 7.0 mi WSW 4.6 mph - N/A   Overcast
2:53 AM 19.0 °F 10.0 °F 12.9 °F 77% 30.36 in 7.0 mi SW 6.9 mph - N/A   Overcast
3:53 AM 18.0 °F 8.7 °F 12.9 °F 81% 30.36 in 6.0 mi SW 6.9 mph - N/A   Haze
4:53 AM 18.0 °F 6.9 °F 12.9 °F 81% 30.33 in 6.0 mi South 9.2 mph - N/A   Haze
5:08 AM 17.6 °F 7.3 °F 14.0 °F 86% 30.29 in 5.0 mi SSW 8.1 mph - N/A   Overcast
5:53 AM 18.0 °F 9.8 °F 12.9 °F 81% 30.34 in 5.0 mi SSW 5.8 mph - N/A   Haze
6:53 AM 18.0 °F - 14.0 °F 84% 30.33 in 5.0 mi Calm Calm - N/A   Overcast
7:53 AM 18.0 °F 11.1 °F 14.0 °F 84% 30.35 in 5.0 mi South 4.6 mph - N/A   Overcast
8:53 AM 18.0 °F 9.8 °F 14.0 °F 84% 30.37 in 3.0 mi SW 5.8 mph - N/A   Overcast
9:25 AM 19.4 °F 11.5 °F 14.0 °F 80% 30.33 in 2.5 mi SSW 5.8 mph - N/A   Haze
9:41 AM 19.4 °F 11.5 °F 15.8 °F 86% 30.33 in 1.8 mi SSW 5.8 mph - N/A   Overcast
9:53 AM 19.0 °F 11.1 °F 15.1 °F 85% 30.38 in 1.5 mi SSW 5.8 mph - N/A   Overcast
10:38 AM 19.4 °F 14.3 °F 15.8 °F 86% 30.34 in 1.0 mi SSW 3.5 mph - 0.00 in Snow Light Snow
11:29 AM 19.4 °F 12.8 °F 15.8 °F 86% 30.34 in 2.0 mi SSW 4.6 mph - 0.00 in Snow Light Snow
11:53 AM 21.0 °F 14.6 °F 16.0 °F 81% 30.38 in 2.5 mi SSW 4.6 mph - 0.00 in Snow Light Snow
12:12 PM 21.2 °F 16.4 °F 17.6 °F 86% 30.33 in 3.0 mi SSW 3.5 mph - 0.00 in   Overcast
12:53 PM 21.0 °F 16.2 °F 16.0 °F 81% 30.35 in 5.0 mi SSW 3.5 mph - 0.00 in   Haze
1:22 PM 21.2 °F 16.4 °F 15.8 °F 80% 30.29 in 5.0 mi WSW 3.5 mph - N/A   Haze
1:53 PM 21.0 °F 16.2 °F 16.0 °F 81% 30.33 in 6.0 mi SSW 3.5 mph - N/A   Haze
2:53 PM 21.9 °F - 15.1 °F 75% 30.32 in 6.0 mi Calm Calm - N/A   Haze
3:53 PM 23.0 °F 18.4 °F 15.1 °F 72% 30.32 in 6.0 mi ESE 3.5 mph - N/A   Haze
4:53 PM 21.9 °F - 15.1 °F 75% 30.32 in 5.0 mi Calm Calm - N/A   Haze
5:53 PM 18.0 °F - 12.9 °F 81% 30.33 in 5.0 mi Calm Calm - N/A   Haze
6:53 PM 17.1 °F - 12.0 °F 81% 30.32 in 4.0 mi Calm Calm - N/A   Haze
7:53 PM 17.1 °F - 12.9 °F 84% 30.32 in 4.0 mi Calm Calm - N/A   Scattered Clouds
8:53 PM 15.1 °F - 10.9 °F 84% 30.32 in 3.0 mi Calm Calm - N/A   Clear
9:53 PM 14.0 °F - 10.0 °F 84% 30.32 in 3.0 mi Calm Calm - N/A   Partly Cloudy
10:53 PM 18.0 °F - 14.0 °F 84% 30.29 in 3.0 mi Calm Calm - N/A   Overcast
11:53 PM 19.0 °F 11.1 °F 15.1 °F 85% 30.25 in 4.0 mi East 5.8 mph - N/A   Overcast